Location: ???????
(38.3360°N, 23.6977°E)
Time: 21:14:44
(UTC+00:00)

Cosmos 2151 Rocket - Pass Details

Date: 17 November 2025
Orbit: 612 x 636 km, 82.5° (Epoch: 11 December)

Event Time Altitude Azimuth Distance (km) Brightness Sun altitude
Rises 15:55:09 0° 162° (SSE) 2,909 7.0 -8.9°
Reaches altitude 10° 15:57:34 10° 151° (SSE) 2,009 6.1 -9.3°
Maximum altitude 16:01:28 31° 90° (E) 1,125 4.4 -10.1°
Drops below altitude 10° 16:05:25 10° 29° (NNE) 2,029 5.8 -10.8°
Sets 16:07:51 0° 19° (NNE) 2,942 6.7 -11.3°
